Weather History for Pellston, MI

Change the Weather History Date:

Saturday, June 23, 2012

  Actual Average Record
Temperature  
Mean Temperature 62 °F -  
Max Temperature 79 °F 75 °F 90 °F (1950)
Min Temperature 45 °F 50 °F 31 °F (1959)
Degree Days  
Heating Degree Days 4    
Growing Degree Days 12 (Base 50)    
Moisture  
Dew Point 50 °F    
Average Humidity 64    
Maximum Humidity 100    
Minimum Humidity 34    
Precipitation  
Precipitation 0.00 in - - ()
Sea Level Pressure  
Sea Level Pressure 30.03 in    
Wind  
Wind Speed 2 mph (WSW)    
Max Wind Speed 9 mph    
Max Gust Speed -    
Visibility 10 miles    
Events      
Averages and records for this station are not official NWS values.
T = Trace of Precipitation, MM = Missing Value Source: NWS Daily Summary

Daily Weather History Graph

Daily Weather History Graph

Search for Another Location

Airport:

Trip Planner

Search our weather history database for the weather conditions in past years. The results will help you decide how hot, cold, wet, or windy it might be!

Date:

Astronomy

Jun. 23, 2012 Rise Set
Actual Time 5:50 AM EDT 9:32 PM EDT
Civil Twilight 5:12 AM EDT 10:10 PM EDT
Nautical Twilight 4:21 AM EDT 11:01 PM EDT
Astronomical Twilight 3:12 AM EDT 12:10 AM EDT
Moon 10:04 AM EDT (6/23) 11:45 PM EDT (6/23)
Length of Visible Light 16h 57m
Length of Day
15h 41m
Waxing Crescent, 16% of the Moon is Illuminated
Jun 23
Waxing Crescent
Jun 26
First Quarter
Jul 3
Full
Jul 10
Last Quarter
Jul 19
New

Hourly Weather History & Observations

Time (EDT) Temp. Dew Point Humidity Pressure Visibility Wind Dir Wind Speed Gust Speed Precip Events Conditions
12:54 AM 50.0 °F 50.0 °F 100% 30.01 in 10.0 mi Calm Calm - N/A   Clear
1:54 AM 48.9 °F 48.0 °F 97% 30.01 in 10.0 mi Calm Calm - N/A   Clear
2:54 AM 48.0 °F 46.9 °F 96% 30.03 in 10.0 mi Calm Calm - N/A   Clear
3:54 AM 46.9 °F 46.0 °F 97% 30.03 in 10.0 mi Calm Calm - N/A   Clear
4:54 AM 45.0 °F 44.1 °F 97% 30.03 in 10.0 mi Calm Calm - N/A   Clear
5:54 AM 45.0 °F 44.1 °F 97% 30.03 in 10.0 mi Calm Calm - N/A   Clear
6:54 AM 48.9 °F 48.0 °F 97% 30.04 in 10.0 mi Calm Calm - N/A   Clear
7:54 AM 57.0 °F 53.1 °F 87% 30.03 in 10.0 mi Calm Calm - N/A   Clear
8:54 AM 64.0 °F 55.9 °F 75% 30.05 in 10.0 mi Calm Calm - N/A   Clear
9:54 AM 69.1 °F 53.1 °F 57% 30.06 in 10.0 mi Calm Calm - N/A   Clear
10:54 AM 71.1 °F 53.1 °F 53% 30.06 in 10.0 mi Variable 3.5 mph - N/A   Clear
11:54 AM 73.9 °F 48.9 °F 41% 30.06 in 10.0 mi Variable 3.5 mph - N/A   Clear
12:54 PM 75.9 °F 46.0 °F 35% 30.06 in 10.0 mi Variable 3.5 mph - N/A   Clear
1:54 PM 75.9 °F 46.0 °F 35% 30.05 in 10.0 mi Variable 4.6 mph - N/A   Clear
2:54 PM 78.8 °F 48.2 °F 34% 30.03 in 10.0 mi South 8.1 mph - N/A   Clear
3:54 PM 78.1 °F 48.0 °F 35% 30.03 in 10.0 mi Variable 5.8 mph - N/A   Clear
4:54 PM 75.9 °F 46.9 °F 36% 30.03 in 10.0 mi WSW 9.2 mph - N/A   Clear
5:54 PM 75.9 °F 48.0 °F 37% 30.02 in 10.0 mi SW 9.2 mph - N/A   Clear
6:54 PM 73.9 °F 51.1 °F 45% 30.01 in 10.0 mi West 3.5 mph - N/A   Clear
7:54 PM 72.0 °F 53.1 °F 51% 30.02 in 10.0 mi WSW 3.5 mph - N/A   Clear
8:54 PM 69.1 °F 55.9 °F 63% 30.02 in 10.0 mi WNW 3.5 mph - N/A   Clear
9:54 PM 66.0 °F 52.0 °F 60% 30.02 in 10.0 mi West 3.5 mph - N/A   Overcast
10:54 PM 66.0 °F 52.0 °F 60% 30.02 in 10.0 mi West 3.5 mph - N/A   Overcast
11:54 PM 66.0 °F 52.0 °F 60% 30.01 in 10.0 mi WSW 4.6 mph - N/A   Overcast